Location: Home
(42.5358°N, 72.7383°W)
Time: 00:37:38
(UTC-05:00)

RS-44 - Visible Passes

Search period start: 27 January 2022 00:00
Search period end: 06 February 2022 00:00
Orbit: 1175 x 1510 km, 82.5° (Epoch: 26 January)

Date Brightness Start Highest point End Pass type
(mag) Time Alt. Az. Time Alt. Az. Time Alt. Az.
03 Feb ? 22:34:14 10° N 22:34:27 11° N 22:34:27 11° N visible
04 Feb ? 22:57:52 10° N 22:58:13 11° N 22:58:13 11° N visible
05 Feb ? 23:21:41 10° N 23:22:00 11° N 23:22:00 11° N visible
